User: anonymous   Login
Location: Aranbee
(34.0885°N, 118.2342°W)
Time: 22:43:17
(UTC+00:00)
Language:

Courier 1B - Orbit

View from above orbital plane
View from above orbital plane
View from above satellite
View from above satellite

Ground track
Ground track

The orbit data is extracted from the following two-line orbital elements,

1    58U 60013A   21210.20993680  .00000083  00000-0 -69933-5 0  9993
2    58  28.3259 191.0420 0165032 196.8185 162.6837 13.46327810994006
Epoch (UTC): 29 July 2021 05:02:18
Eccentricity: 0.0165032
inclination: 28.3259°
perigee height: 962 km
apogee height: 1209 km
right ascension of ascending node: 191.0420°
argument of perigee: 196.8185°
revolutions per day: 13.46327810
mean anomaly at epoch: 162.6837°
orbit number at epoch: 99400

The dashed part of the orbit path shows where the satellite is in the earth's shadow,  

DLR